TimeEST,TemperatureF,Dew PointF,Humidity,Sea Level PressureIn,VisibilityMPH,Wind Direction,Wind SpeedMPH,Gust SpeedMPH,PrecipitationIn,Events,Conditions,WindDirDegrees,DateUTC
12:15 AM,37.4,28.4,70,29.94,10.0,WNW,6.9,-,N/A,,Clear,290,2012-12-30 05:15:00
12:35 AM,37.4,28.4,70,29.95,10.0,WNW,6.9,-,N/A,,Clear,290,2012-12-30 05:35:00
12:55 AM,37.4,28.4,70,29.96,10.0,WNW,6.9,-,N/A,,Clear,290,2012-12-30 05:55:00
1:15 AM,37.4,26.6,65,29.97,10.0,West,9.2,21.9,N/A,,Clear,270,2012-12-30 06:15:00
1:35 AM,35.6,26.6,70,29.98,10.0,West,9.2,20.7,N/A,,Clear,280,2012-12-30 06:35:00
1:55 AM,35.6,26.6,70,29.99,10.0,West,10.4,18.4,N/A,,Clear,280,2012-12-30 06:55:00
2:15 AM,35.6,26.6,70,30.01,10.0,West,10.4,17.3,N/A,,Clear,270,2012-12-30 07:15:00
2:35 AM,35.6,26.6,70,30.02,10.0,West,5.8,-,N/A,,Clear,280,2012-12-30 07:35:00
2:55 AM,35.6,24.8,65,30.03,10.0,West,9.2,-,N/A,,Clear,280,2012-12-30 07:55:00
3:15 AM,35.6,24.8,65,30.04,10.0,WNW,5.8,-,N/A,,Clear,290,2012-12-30 08:15:00
3:35 AM,35.6,24.8,65,30.05,1.0,West,6.9,-,N/A,,Clear,280,2012-12-30 08:35:00
3:55 AM,33.8,24.8,70,30.05,1.0,West,4.6,-,N/A,,Clear,280,2012-12-30 08:55:00
5:26 AM,33.8,24.8,70,30.09,10.0,West,6.9,-,N/A,,Clear,270,2012-12-30 10:26:00
5:38 AM,33.8,24.8,70,30.10,10.0,West,5.8,-,N/A,,Clear,260,2012-12-30 10:38:00
6:06 AM,32.0,24.8,75,30.13,10.0,West,4.6,-,N/A,,Clear,260,2012-12-30 11:06:00
6:17 AM,32.0,23.0,69,30.14,10.0,West,4.6,-,N/A,,Clear,260,2012-12-30 11:17:00
6:44 AM,32.0,24.8,75,30.15,10.0,West,5.8,-,N/A,,Clear,270,2012-12-30 11:44:00
8:05 AM,32.0,23.0,69,30.21,10.0,West,5.8,-,N/A,,Clear,270,2012-12-30 13:05:00
9:35 AM,42.8,23.0,46,30.28,10.0,West,9.2,20.7,N/A,,Clear,280,2012-12-30 14:35:00
9:55 AM,42.8,24.8,49,30.29,10.0,WNW,5.8,-,N/A,,Clear,290,2012-12-30 14:55:00
10:15 AM,42.8,21.2,42,30.30,10.0,NW,8.1,-,N/A,,Clear,310,2012-12-30 15:15:00
10:35 AM,42.8,21.2,42,30.31,10.0,NW,8.1,18.4,N/A,,Clear,320,2012-12-30 15:35:00
10:55 AM,42.8,21.2,42,30.31,10.0,NNW,9.2,-,N/A,,Clear,330,2012-12-30 15:55:00
11:55 AM,44.6,21.2,39,30.30,10.0,North,-9999.0,-,N/A,,Clear,0,2012-12-30 16:55:00
12:35 PM,44.6,21.2,39,30.29,10.0,WNW,10.4,-,N/A,,Clear,300,2012-12-30 17:35:00
12:55 PM,46.4,21.2,37,30.29,10.0,WNW,10.4,18.4,N/A,,Clear,300,2012-12-30 17:55:00
1:15 PM,46.4,21.2,37,30.29,10.0,Calm,Calm,-,N/A,,Clear,290,2012-12-30 18:15:00
1:35 PM,46.4,21.2,37,30.29,10.0,Calm,Calm,17.3,N/A,,Clear,310,2012-12-30 18:35:00
1:55 PM,46.4,21.2,37,30.30,10.0,West,8.1,16.1,N/A,,Clear,280,2012-12-30 18:55:00
2:15 PM,46.4,21.2,37,30.30,10.0,West,5.8,-,N/A,,Clear,270,2012-12-30 19:15:00
2:39 PM,46.4,21.2,37,30.31,10.0,WSW,8.1,-,N/A,,Clear,240,2012-12-30 19:39:00
3:15 PM,46.4,21.2,37,30.32,10.0,WNW,5.8,-,N/A,,Clear,300,2012-12-30 20:15:00
3:35 PM,46.4,21.2,37,30.33,10.0,WSW,5.8,-,N/A,,Clear,250,2012-12-30 20:35:00
3:55 PM,44.6,21.2,39,30.34,10.0,WSW,10.4,18.4,N/A,,Clear,250,2012-12-30 20:55:00
4:15 PM,44.6,21.2,39,30.35,10.0,WSW,9.2,18.4,N/A,,Clear,250,2012-12-30 21:15:00
4:35 PM,42.8,19.4,39,30.35,10.0,West,8.1,16.1,N/A,,Clear,270,2012-12-30 21:35:00
4:55 PM,42.8,19.4,39,30.34,10.0,West,5.8,-,N/A,,Clear,280,2012-12-30 21:55:00
5:15 PM,39.2,19.4,45,30.35,10.0,SW,5.8,-,N/A,,Clear,220,2012-12-30 22:15:00
5:35 PM,35.6,19.4,52,30.35,10.0,SW,3.5,-,N/A,,Clear,230,2012-12-30 22:35:00
5:55 PM,35.6,21.2,56,30.35,10.0,WSW,4.6,-,N/A,,Clear,250,2012-12-30 22:55:00
6:15 PM,33.8,19.4,56,30.35,10.0,Calm,Calm,-,N/A,,Clear,0,2012-12-30 23:15:00
6:35 PM,32.0,21.2,64,30.36,10.0,Calm,Calm,-,N/A,,Clear,0,2012-12-30 23:35:00
6:55 PM,28.4,21.2,74,30.36,10.0,Calm,Calm,-,N/A,,Clear,0,2012-12-30 23:55:00
7:15 PM,28.4,21.2,74,30.36,10.0,Calm,Calm,-,N/A,,Clear,0,2012-12-31 00:15:00
7:35 PM,26.6,17.6,69,30.37,10.0,Calm,Calm,-,N/A,,Clear,0,2012-12-31 00:35:00
7:55 PM,26.6,19.4,74,30.38,10.0,Calm,Calm,-,N/A,,Clear,0,2012-12-31 00:55:00
8:15 PM,26.6,21.2,80,30.38,10.0,Calm,Calm,-,N/A,,Clear,0,2012-12-31 01:15:00
8:35 PM,26.6,21.2,80,30.38,10.0,Calm,Calm,-,N/A,,Clear,0,2012-12-31 01:35:00
8:55 PM,30.2,21.2,69,30.40,10.0,West,4.6,-,N/A,,Clear,260,2012-12-31 01:55:00
9:15 PM,30.2,19.4,64,30.39,10.0,Calm,Calm,-,N/A,,Clear,0,2012-12-31 02:15:00
9:35 PM,30.2,19.4,64,30.39,10.0,West,4.6,-,N/A,,Clear,280,2012-12-31 02:35:00
9:55 PM,32.0,21.2,64,30.41,10.0,West,4.6,-,N/A,,Clear,270,2012-12-31 02:55:00
10:15 PM,32.0,21.2,64,30.40,10.0,WNW,3.5,-,N/A,,Clear,290,2012-12-31 03:15:00
10:35 PM,32.0,21.2,64,30.40,10.0,WNW,4.6,-,N/A,,Clear,290,2012-12-31 03:35:00
10:55 PM,32.0,21.2,64,30.40,10.0,WNW,4.6,-,N/A,,Clear,300,2012-12-31 03:55:00
11:15 PM,32.0,21.2,64,30.40,10.0,WNW,4.6,-,N/A,,Clear,300,2012-12-31 04:15:00
11:35 PM,32.0,19.4,60,30.41,10.0,West,3.5,-,N/A,,Clear,270,2012-12-31 04:35:00
11:55 PM,30.2,19.4,64,30.40,10.0,West,3.5,-,N/A,,Clear,280,2012-12-31 04:55:00